AEROCUBE 8D

Last updated on Mon Sep 21 2026 00:03:44 GMT+0000 (Coordinated Universal Time)

1 41852U 16067E 26263.42900075 .00004941 00000+0 19800-3 0 9994 2 41852 98.0516 140.8527 0003981 142.2124 217.9393 15.25551618540580
UTC large
Height (km)
Speed (km/s)
/
Latitude / Longitude
Inclination (degrees)
Orbital Period (minutes)
Azimuth
Elevation
Range (km)
Doppler Factor

Next 0 passes for location: London (51.5072 / 0.1276)

No passes found over London.
AEROCUBE 8D